When you browse on this site, cookies collect data to enhance your experience and personalize the content and advertising you see.
Visit our Privacy Policy to learn more. By continuing to use the site, you agree to this use of cookies and data.
  • In Austria
  • List of Countries
  • For 7 days
  • Water Temperature
  • Weather Map
  • News
  • Weather Widgets
  • user-avatar
    Login

    Hourly Weather Simijaca

    Today, 23 September, Monday

    Time Temperature Precipitation Wind Pressure Humidity
    00:00 +10°C° 0 mm 1 mps 558 mmHg 94%
    01:00 +10°C° 0 mm 1 mps 558 mmHg 94%
    02:00 +10°C° 0 mm 1 mps 558 mmHg 94%
    03:00 +10°C° 0 mm 1 mps 557 mmHg 93%
    04:00 +9°C° 0 mm 1 mps 557 mmHg 92%
    05:00 +10°C° 0 mm 1 mps 558 mmHg 90%
    06:00 +11°C° 0 mm 1 mps 559 mmHg 88%
    07:00 +12°C° 0 mm 1 mps 560 mmHg 86%
    08:00 +14°C° 0 mm 1 mps 561 mmHg 76%
    09:00 +16°C° 0 mm 1 mps 562 mmHg 66%
    10:00 +20°C° 0 mm 1 mps 563 mmHg 56%
    11:00 +20°C° 0.3 mm 1 mps 563 mmHg 59%
    12:00 +20°C° 0.3 mm 1 mps 562 mmHg 62%
    13:00 +20°C° 0.3 mm 1 mps 561 mmHg 64%
    14:00 +19°C° 1.1 mm 1 mps 560 mmHg 71%
    15:00 +18°C° 1.1 mm 1 mps 559 mmHg 78%
    16:00 +16°C° 1.1 mm 1 mps 558 mmHg 85%
    17:00 +15°C° 1.4 mm 1 mps 558 mmHg 88%
    18:00 +14°C° 1.4 mm 1 mps 558 mmHg 91%
    19:00 +13°C° 1.4 mm 1 mps 558 mmHg 95%
    20:00 +12°C° 1.6 mm 1 mps 558 mmHg 95%
    21:00 +12°C° 1.6 mm 1 mps 558 mmHg 96%
    22:00 +12°C° 1.6 mm 1 mps 559 mmHg 96%
    23:00 +11°C° 0.9 mm 1 mps 558 mmHg 96%

    Tomorrow, 24 September, Tuesday

    Time Temperature Precipitation Wind Pressure Humidity
    00:00 +11°C° 0.9 mm 1 mps 558 mmHg 95%
    01:00 +11°C° 0.9 mm 1 mps 558 mmHg 94%
    02:00 +10°C° 0 mm 1 mps 558 mmHg 92%
    03:00 +10°C° 0 mm 1 mps 557 mmHg 90%
    04:00 +10°C° 0 mm 1 mps 557 mmHg 89%
    05:00 +10°C° 0 mm 1 mps 558 mmHg 87%
    06:00 +11°C° 0 mm 1 mps 558 mmHg 85%
    07:00 +11°C° 0 mm 1 mps 559 mmHg 84%
    08:00 +14°C° 0.1 mm 1 mps 560 mmHg 77%
    09:00 +16°C° 0.1 mm 1 mps 562 mmHg 70%
    10:00 +19°C° 0.1 mm 1 mps 563 mmHg 63%
    11:00 +19°C° 0.6 mm 1 mps 562 mmHg 67%
    12:00 +18°C° 0.6 mm 1 mps 561 mmHg 72%
    13:00 +18°C° 0.6 mm 1 mps 560 mmHg 77%
    14:00 +18°C° 0.8 mm 1 mps 560 mmHg 80%
    15:00 +16°C° 0.8 mm 1 mps 559 mmHg 84%
    16:00 +15°C° 0.8 mm 0 mps 559 mmHg 88%
    17:00 +14°C° 0.8 mm 0 mps 559 mmHg 90%
    18:00 +13°C° 0.8 mm 0 mps 559 mmHg 92%
    19:00 +12°C° 0.8 mm 0 mps 559 mmHg 95%
    20:00 +12°C° 1.2 mm 0 mps 559 mmHg 95%
    21:00 +13°C° 1.2 mm 1 mps 559 mmHg 95%
    22:00 +12°C° 1.2 mm 1 mps 559 mmHg 95%
    23:00 +12°C° 1.8 mm 1 mps 559 mmHg 95%

    Day after tomorrow, 25 September, Wednesday

    Time Temperature Precipitation Wind Pressure Humidity
    00:00 +12°C° 1.8 mm 1 mps 559 mmHg 95%
    01:00 +12°C° 1.8 mm 1 mps 558 mmHg 95%
    02:00 +12°C° 0.6 mm 1 mps 558 mmHg 95%
    03:00 +12°C° 0.6 mm 1 mps 558 mmHg 95%
    04:00 +10°C° 0.6 mm 0 mps 558 mmHg 94%
    05:00 +11°C° 0.2 mm 0 mps 559 mmHg 94%
    06:00 +11°C° 0.2 mm 0 mps 559 mmHg 93%
    07:00 +11°C° 0.2 mm 0 mps 560 mmHg 93%
    08:00 +13°C° 0.3 mm 1 mps 560 mmHg 89%
    09:00 +15°C° 0.3 mm 1 mps 561 mmHg 85%
    10:00 +16°C° 0.3 mm 1 mps 562 mmHg 82%
    11:00 +16°C° 0.7 mm 1 mps 561 mmHg 80%
    12:00 +18°C° 0.7 mm 1 mps 561 mmHg 78%
    13:00 +18°C° 0.7 mm 1 mps 560 mmHg 76%
    14:00 +18°C° 0.5 mm 1 mps 560 mmHg 77%
    15:00 +18°C° 0.5 mm 1 mps 559 mmHg 77%
    16:00 +18°C° 0.5 mm 1 mps 559 mmHg 77%
    17:00 +15°C° 0.7 mm 1 mps 558 mmHg 82%
    18:00 +14°C° 0.7 mm 1 mps 558 mmHg 88%
    19:00 +12°C° 0.7 mm 1 mps 557 mmHg 93%
    20:00 +12°C° 0.6 mm 1 mps 558 mmHg 94%
    21:00 +12°C° 0.6 mm 1 mps 558 mmHg 94%
    22:00 +12°C° 0.6 mm 1 mps 559 mmHg 95%
    23:00 +11°C° 0.3 mm 1 mps 558 mmHg 95%

    26 September, Thursday

    Time Temperature Precipitation Wind Pressure Humidity
    00:00 +11°C° 0.3 mm 1 mps 558 mmHg 95%
    01:00 +11°C° 0.3 mm 1 mps 558 mmHg 95%
    02:00 +10°C° 0 mm 1 mps 557 mmHg 95%
    03:00 +10°C° 0 mm 1 mps 557 mmHg 95%
    04:00 +10°C° 0 mm 1 mps 557 mmHg 94%
    05:00 +10°C° 0 mm 1 mps 558 mmHg 93%
    06:00 +11°C° 0 mm 1 mps 558 mmHg 92%
    07:00 +12°C° 0 mm 1 mps 559 mmHg 91%
    08:00 +13°C° 0.1 mm 1 mps 560 mmHg 84%
    09:00 +15°C° 0.1 mm 1 mps 561 mmHg 77%
    10:00 +17°C° 0.1 mm 2 mps 562 mmHg 70%
    11:00 +17°C° 0.8 mm 2 mps 561 mmHg 72%
    12:00 +18°C° 0.8 mm 2 mps 561 mmHg 73%
    13:00 +18°C° 0.8 mm 2 mps 560 mmHg 75%
    14:00 +17°C° 1.2 mm 2 mps 560 mmHg 78%
    15:00 +16°C° 1.2 mm 1 mps 559 mmHg 82%
    16:00 +16°C° 1.2 mm 1 mps 558 mmHg 85%
    17:00 +14°C° 0.7 mm 1 mps 558 mmHg 88%
    18:00 +13°C° 0.7 mm 1 mps 558 mmHg 91%
    19:00 +12°C° 0.7 mm 1 mps 558 mmHg 94%
    20:00 +12°C° 0.5 mm 1 mps 558 mmHg 94%
    21:00 +11°C° 0.5 mm 1 mps 558 mmHg 94%
    22:00 +11°C° 0.5 mm 1 mps 558 mmHg 95%
    23:00 +10°C° 0 mm 1 mps 558 mmHg 95%

    27 September, Friday

    Time Temperature Precipitation Wind Pressure Humidity
    00:00 +10°C° 0 mm 1 mps 557 mmHg 94%
    01:00 +10°C° 0 mm 1 mps 557 mmHg 94%
    02:00 +10°C° 0 mm 1 mps 557 mmHg 94%
    03:00 +9°C° 0 mm 1 mps 557 mmHg 93%
    04:00 +9°C° 0 mm 1 mps 557 mmHg 93%
    05:00 +10°C° 0 mm 1 mps 557 mmHg 91%
    06:00 +11°C° 0 mm 1 mps 558 mmHg 89%
    07:00 +12°C° 0 mm 1 mps 559 mmHg 87%
    08:00 +14°C° 0.2 mm 1 mps 560 mmHg 81%
    09:00 +16°C° 0.2 mm 1 mps 561 mmHg 74%
    10:00 +19°C° 0.2 mm 1 mps 563 mmHg 68%
    11:00 +19°C° 0.7 mm 1 mps 562 mmHg 70%
    12:00 +18°C° 0.7 mm 2 mps 561 mmHg 71%
    13:00 +18°C° 0.7 mm 2 mps 560 mmHg 73%
    14:00 +18°C° 0.9 mm 1 mps 560 mmHg 76%
    15:00 +18°C° 0.9 mm 1 mps 559 mmHg 79%
    16:00 +16°C° 0.9 mm 1 mps 558 mmHg 82%
    17:00 +15°C° 0.9 mm 1 mps 558 mmHg 86%
    18:00 +13°C° 0.9 mm 1 mps 558 mmHg 90%
    19:00 +12°C° 0.9 mm 1 mps 557 mmHg 95%
    20:00 +12°C° 0.3 mm 1 mps 557 mmHg 95%
    21:00 +10°C° 0.3 mm 0 mps 558 mmHg 95%
    22:00 +10°C° 0.3 mm 0 mps 558 mmHg 95%
    23:00 +10°C° 0 mm 1 mps 557 mmHg 95%

    28 September, Saturday

    Time Temperature Precipitation Wind Pressure Humidity
    00:00 +10°C° 0 mm 1 mps 557 mmHg 95%
    01:00 +10°C° 0 mm 1 mps 557 mmHg 95%
    02:00 +10°C° 0 mm 1 mps 557 mmHg 94%
    03:00 +10°C° 0 mm 1 mps 557 mmHg 94%
    04:00 +10°C° 0 mm 1 mps 556 mmHg 93%
    05:00 +11°C° 0 mm 1 mps 557 mmHg 92%
    06:00 +11°C° 0 mm 0 mps 558 mmHg 90%
    07:00 +11°C° 0 mm 0 mps 559 mmHg 88%
    08:00 +13°C° 0.3 mm 0 mps 560 mmHg 83%
    09:00 +16°C° 0.3 mm 1 mps 561 mmHg 77%
    10:00 +19°C° 0.3 mm 1 mps 562 mmHg 72%
    11:00 +19°C° 0.9 mm 1 mps 561 mmHg 74%
    12:00 +19°C° 0.9 mm 1 mps 560 mmHg 76%
    13:00 +19°C° 0.9 mm 1 mps 559 mmHg 77%
    14:00 +18°C° 1.2 mm 1 mps 559 mmHg 81%
    15:00 +18°C° 1.2 mm 1 mps 558 mmHg 85%
    16:00 +16°C° 1.2 mm 1 mps 557 mmHg 89%
    17:00 +14°C° 1.1 mm 0 mps 557 mmHg 91%
    18:00 +13°C° 1.1 mm 0 mps 557 mmHg 93%
    19:00 +12°C° 1.1 mm 0 mps 557 mmHg 96%
    20:00 +12°C° 1.3 mm 0 mps 557 mmHg 96%
    21:00 +11°C° 1.3 mm 0 mps 557 mmHg 96%
    22:00 +11°C° 1.3 mm 0 mps 558 mmHg 96%
    23:00 +11°C° 0.4 mm 0 mps 557 mmHg 96%
    Show more